SCP
0 0 0 0 0 0 0 0 0 0 0 0 0 0 0 0 0 0 0 0 0 0 0 0 0 0 0 0 0 0 0 0 0 0 0 0 0 0 0 0 0 0 0
0 0 0 0 0 0 0 0 0 0 0 0 0 0 0 0 0 0 0 0 0 0 0 0 0 0 0 0 0 0 0 0 0 0 0 0 0 0 0 0 0 0 0
0 0 0 0 0 0 0 0 0 0 0 0 0 0 0 0 0 0 0 0 0 0 0 0 0 0 0 0 0 0 0 0 0 0 0 0 0 0 0 0 0 0 0
0 0 0 0 0 0 0 0 0 0 0 0 0 0 0 0 0 0 0 0 0 0 0 0 0 0 0 0 0 0 0 0 0 0 0 0 0 0 0 0 0 0 0
0 0 0 0 0 0 0 0 0 0 0 0 0 0 0 0 0 0 0 0 0 0 0 0 0 0 0 0 0 0 0 0 0 0 0 0 0 0 0 0 0 0 0
0 0 0 0 0 0 0 0 0 0 0 0 0 0 0 0 0 0 0 0 0 0 0 0 0 0 0 0 0 0 0 0 0 0 0 0 0 0 0 0 0 0 0
0 0 0 0 0 0 0 0 0 0 0 0 0 0 0 0 0 0 0 0 0 0 0 0 0 0 0 0 0 0 0 0 0 0 0 0 0 0 0 0 0 0 0
0 0 0 0 0 0 0 0 0 0 0 0 0 0 0 0 0 0 0 0 0 0 0 0 0 0 0 0 0 0 0 0 0 0 0 0 0 0 0 0 0 0 0
0 0 0 0 0 0 0 0 0 0 0 0 0 0 0 0 0 0 0 0 0 0 0 0 0 0 0 0 0 0 0 0 0 0 0 0 0 0 0 0 0 0 0
0 0 0 0 0 0 0 0 0 0 0 0 0 0 0 0 0 0 0 0 0 0 0 0 0 0 0 0 0 0 0 0 0 0 0 0 0 0 0 0 0 0 0
0 0 0 0 0 0 0 0 0 0 0 0 0 0 0 0 0 0 0 0 0 0 0 0 0 0 0 0 0 0 0 0 0 0 0 0 0 0 0 0 0 0 0
0 0 0 0 0 0 0 0 0 0 0 0 0 0 0 0 0 0 0 0 0 0 0 0 0 0 0 0 0 0 0 0 0 0 0 0 0 0 0 0 0 0 0
0 0 0 0 0 0 0 0 0 0 0 0 0 0 0 0 0 0 0 0 0 0 0 0 0 0 0 0 0 0 0 0 0 0 0 0 0 0 0 0 0 0 0
0 0 0 0 0 0 0 0 0 0 0 0 0 0 0 0 0 0 0 0 0 0 0 0 0 0 0 0 0 0 0 0 0 0 0 0 0 0 0 0 0 0 0
0 0 0 0 0 0 0 0 0 0 0 0 0 0 0 0 0 0 0 0 0 0 0 0 0 0 0 0 0 0 0 0 0 0 0 0 0 0 0 0 0 0 0
0 0 0 0 0 0 0 0 0 0 0 0 0 0 0 0 0 0 0 0 0 0 0 0 0 0 0 0 0 0 0 0 0 0 0 0 0 0 0 0 0 0 0
0 0 0 0 0 0 0 0 0 0 0 0 0 0 0 0 0 0 0 0 0 0 0 0 0 0 0 0 0 0 0 0 0 0 0 0 0 0 0 0 0 0 0
0 0 0 0 0 0 0 0 0 0 0 0 0 0 0 0 0 0 0 0 0 0 0 0 0 0 0 0 0 0 0 0 0 0 0 0 0 0 0 0 0 0 0
0 0 0 0 0 0 0 0 0 0 0 0 0 0 0 0 0 0 0 0 0 0 0 0 0 0 0 0 0 0 0 0 0 0 0 0 0 0 0 0 0 0 0
0 0 0 0 0 0 0 0 0 0 0 0 0 0 0 0 0 0 0 0 0 0 0 0 0 0 0 0 0 0 0 0 0 0 0 0 0 0 0 0 0 0 0
0 0 0 0 0 0 0 0 0 0 0 0 0 0 0 0 0 0 0 0 0 0 0 0 0 0 0 0 0 0 0 0 0 0 0 0 0 0 0 0 0 0 0
0 0 0 0 0 0 0 0 0 0 0 0 0 0 0 0 0 0 0 0 0 0 0 0 0 0 0 0 0 0 0 0 0 0 0 0 0 0 0 0 0 0 0
0 0 0 0 0 0 0 0 0 0 0 0 0 0 0 0 0 0 0 0 0 0 0 0 0 0 0 0 0 0 0 0 0 0 0 0 0 0 0 0 0 0 0
0 0 0 0 0 0 0 0 0 0 0 0 0 0 0 0 0 0 0 0 0 0 0 0 0 0 0 0 0 0 0 0 0 0 0 0 0 0 0 0 0 0 0
0 0 0 0 0 0 0 0 0 0 0 0 0 0 0 0 0 0 0 0 0 0 0 0 0 0 0 0 0 0 0 0 0 0 0 0 0 0 0 0 0 0 0
0 0 0 0 0 0 0 0 0 0 0 0 0 0 0 0 0 0 0 0 0 0 0 0 0 0 0 0 0 0 0 0 0 0 0 0 0 0 0 0 0 0 0
Wind_Speed
13 11 9 9 8 8 7 7 7 6 6 7 7 7 7 8 8 7 9 9 10 11 11 11 13 11 9 9 8 8 9 10 13 12 9 9 10 11 11 9 9 9 10
12 11 10 9 8 8 8 7 7 7 6 7 7 7 8 8 8 8 10 11 10 12 13 13 14 11 12 10 9 10 10 10 11 14 11 9 9 10 10 10 10 10 9
12 11 10 9 9 9 8 7 7 6 6 6 6 7 8 9 9 9 10 11 12 13 13 13 14 13 13 10 11 10 10 10 9 10 12 9 7 8 8 10 10 8 10
13 12 12 12 11 9 8 7 7 6 6 6 7 8 8 9 9 10 10 12 12 13 12 12 12 12 12 12 11 11 10 10 9 9 10 9 7 7 6 8 10 7 8
14 13 13 11 9 8 8 7 6 6 7 6 7 8 8 8 8 10 11 11 10 10 10 10 11 15 18 14 11 9 9 7 8 9 9 9 8 7 7 7 10 9 9
14 14 11 10 10 9 8 7 7 6 6 6 7 8 9 8 16 20 16 7 7 8 8 8 10 12 16 21 23 22 17 10 9 8 8 9 10 9 8 9 9 9 8
14 13 12 11 11 10 9 7 8 7 6 6 7 7 8 11 18 19 19 9 6 7 7 8 9 10 16 10 16 19 15 18 18 11 9 10 11 10 10 11 10 9 10
14 13 12 12 11 9 8 9 8 6 6 6 7 7 7 10 16 17 18 6 6 7 7 8 9 10 13 15 9 7 8 9 13 9 8 10 11 11 11 11 10 10 10
15 15 14 13 12 11 11 10 8 6 6 6 6 6 7 9 14 16 15 3 5 7 7 7 9 10 19 21 8 6 8 8 12 16 18 16 18 18 14 7 6 7 8
18 16 14 13 13 12 12 10 7 6 7 6 6 6 6 7 12 14 14 3 5 5 5 7 14 16 20 19 6 6 9 8 6 9 11 13 11 12 15 7 6 7 6
14 13 13 13 13 12 10 8 7 7 5 5 5 5 5 7 10 13 14 4 4 5 5 5 8 19 20 19 15 7 13 11 6 8 8 7 7 6 7 6 7 7 8
12 13 13 13 11 10 10 8 7 7 6 5 5 5 4 5 7 10 13 12 10 4 5 6 8 18 18 18 13 16 19 15 7 7 7 7 7 7 7 7 8 9 10
14 14 13 13 12 10 10 9 7 6 5 5 4 4 4 4 5 12 12 13 14 6 5 12 15 16 15 11 15 19 14 8 8 8 8 8 7 8 8 7 7 8 10
15 14 13 13 12 11 9 8 7 7 6 5 5 5 4 3 4 5 5 6 9 7 5 8 12 13 11 12 12 10 7 8 9 8 8 8 8 7 7 7 7 6 5
14 13 13 13 12 11 10 9 9 8 8 7 6 5 4 4 7 9 6 3 3 4 3 3 4 5 6 6 7 7 6 7 8 8 8 9 9 9 8 7 6 6 4
14 13 11 11 10 10 9 8 13 12 14 15 12 9 7 9 10 10 10 9 9 9 4 3 4 5 6 8 8 8 8 8 8 8 8 8 9 9 9 8 7 6 6
15 14 11 11 11 11 10 9 8 9 13 12 12 11 9 8 8 8 8 7 6 6 2 3 4 5 6 7 7 8 8 8 7 7 8 8 9 9 9 9 8 7 7
14 16 14 11 11 11 10 9 8 8 7 5 7 10 9 8 6 7 6 3 2 2 2 3 4 5 6 7 7 8 8 8 7 7 7 7 8 9 9 9 8 9 8
13 10 11 10 10 10 9 9 8 8 7 5 3 4 8 6 5 5 3 1 2 3 3 3 4 5 5 6 7 7 8 8 7 7 7 7 7 8 9 9 9 13 10
12 18 14 10 10 9 9 9 9 8 7 6 6 5 4 3 2 2 2 2 3 3 3 4 4 5 5 6 6 7 7 7 7 6 6 6 7 7 9 10 9 9 8
9 13 21 12 9 10 10 10 9 8 8 7 6 7 10 5 4 4 3 3 3 3 3 4 4 5 5 5 6 7 8 7 6 6 6 6 6 7 7 8 9 9 9
9 9 10 10 10 10 10 9 9 8 9 8 5 6 11 5 4 4 3 3 3 3 3 3 4 4 5 5 6 7 7 7 6 6 5 5 6 7 7 8 9 9 9
9 10 10 10 9 13 12 9 9 9 8 8 7 6 5 5 4 4 4 3 3 3 3 3 4 4 5 5 6 6 6 6 5 5 5 5 6 6 7 8 10 10 10
10 11 11 11 10 10 10 10 9 9 9 8 7 7 6 5 5 4 4 3 3 3 3 3 4 6 8 7 6 6 6 5 4 4 4 4 5 6 6 7 9 11 10
10 11 11 11 11 11 10 10 10 9 9 9 8 7 6 5 5 4 3 3 3 3 4 4 4 5 8 10 9 7 10 9 5 2 2 2 5 6 6 7 8 9 9
11 11 10 10 10 10 10 10 10 10 9 8 8 7 7 6 5 4 4 3 3 3 4 4 5 7 9 8 9 10 10 6 4 4 2 2 4 5 6 6 8 8 9
Wind_Direction
192 193 193 193 196 200 209 219 225 233 238 244 249 255 259 262 262 261 264 269 269 273 275 273 273 272 271 270 269 269 271 272 280 287 287 291 293 296 300 301 299 295 295
192 190 195 192 193 202 214 221 224 233 238 242 250 257 262 266 262 261 268 276 271 275 277 276 276 276 272 271 269 269 272 271 275 287 293 291 289 292 293 299 303 302 297
187 189 193 195 198 207 214 219 224 232 241 247 251 258 263 266 266 265 265 270 271 272 274 275 275 275 273 270 269 270 270 273 273 281 289 289 285 286 293 296 295 289 292
189 191 197 201 202 206 210 216 222 229 241 249 254 259 264 267 268 269 269 269 270 272 274 273 273 271 270 268 269 266 269 272 273 277 284 287 284 282 283 296 298 290 291
191 196 203 200 196 199 206 214 222 230 243 249 259 267 270 271 268 265 262 266 270 276 276 274 276 283 286 285 281 275 275 273 278 282 285 289 290 294 293 292 293 297 290
193 200 197 190 194 200 206 212 223 233 243 252 259 267 273 277 289 295 297 279 278 282 284 286 287 291 292 298 302 301 301 301 294 284 285 285 287 285 286 286 290 294 295
196 196 191 191 198 203 206 211 223 233 242 253 259 263 268 278 293 300 304 303 286 283 283 289 297 295 303 290 290 295 300 301 301 295 286 281 281 281 279 280 276 274 273
196 194 191 190 198 198 202 216 225 227 236 248 257 262 268 280 298 305 309 310 288 284 280 282 285 286 290 294 282 273 270 279 286 287 269 270 273 273 266 269 273 275 271
199 197 193 191 193 196 207 218 220 222 235 241 250 259 267 282 300 305 312 287 287 287 284 288 297 288 298 315 321 296 292 288 299 306 306 304 304 305 299 290 283 281 284
202 198 191 190 193 200 208 212 212 217 232 241 250 253 262 272 295 307 314 286 290 291 288 292 309 313 318 332 334 308 304 301 301 307 307 305 301 297 300 291 273 269 273
195 188 186 189 195 199 202 206 209 217 226 235 249 257 261 272 295 307 312 306 293 299 304 305 306 319 331 338 339 318 318 335 321 306 301 297 293 284 279 268 253 250 250
182 185 188 189 191 193 197 203 206 210 220 234 243 259 252 267 289 299 312 320 324 302 301 301 306 325 337 339 336 331 339 342 320 312 312 310 307 300 290 279 265 252 245
182 188 188 188 191 190 192 198 201 204 212 224 229 248 259 257 279 300 310 317 322 320 302 319 329 335 338 334 330 340 343 330 319 321 318 313 306 296 294 290 281 266 255
187 190 187 187 189 192 194 196 199 201 205 214 222 235 247 259 270 277 274 288 305 314 315 323 333 335 335 330 333 332 327 320 326 320 314 311 310 308 306 304 301 297 283
191 191 189 189 188 191 197 200 200 203 198 200 209 215 223 245 263 282 293 276 282 296 328 324 325 328 330 327 325 324 323 324 327 322 320 320 321 321 318 317 309 305 288
191 192 190 187 187 188 190 200 217 212 221 224 219 213 224 241 273 294 306 315 324 334 352 325 324 325 325 325 325 324 325 327 326 325 324 324 324 324 322 322 321 315 306
196 190 187 185 186 185 186 188 195 213 221 223 226 231 236 251 274 292 300 318 329 346 343 308 311 315 316 317 318 318 320 321 320 322 324 325 325 325 324 326 327 323 315
199 195 189 186 185 184 185 186 186 185 192 209 222 228 234 245 266 283 297 329 321 325 285 290 299 305 310 312 314 316 317 318 320 322 322 323 325 326 327 328 326 324 320
198 196 190 183 182 182 180 179 181 185 187 183 180 220 226 233 251 270 289 228 259 277 282 286 290 298 304 307 310 312 313 314 316 317 320 323 325 327 327 327 325 326 327
200 200 188 181 180 179 177 178 181 183 186 186 191 195 190 193 208 235 236 236 247 262 273 282 288 292 299 301 305 309 312 312 314 314 317 320 322 324 326 326 327 326 323
193 199 194 186 184 183 181 182 182 181 186 190 193 193 190 189 203 216 228 235 240 254 268 278 285 292 294 298 301 304 308 309 311 313 316 319 322 325 325 324 325 325 325
188 190 187 182 182 185 184 183 180 182 187 186 181 198 205 187 192 209 223 234 239 246 256 268 278 281 288 295 300 305 308 308 311 314 315 318 321 324 327 329 331 332 332
186 187 185 181 180 188 186 182 182 183 186 184 179 183 188 184 194 207 219 228 238 252 262 268 280 287 292 296 297 299 301 304 304 306 312 321 325 328 330 331 332 336 337
186 186 186 183 182 185 184 184 185 185 184 181 180 183 185 186 192 203 209 220 235 252 263 273 280 287 297 304 304 302 295 290 291 297 306 318 323 325 329 332 333 336 337
186 186 187 185 185 186 185 184 185 184 183 183 181 181 180 180 187 195 200 211 231 253 269 279 282 292 300 305 306 301 308 313 318 331 331 327 325 324 328 333 336 337 340
186 187 187 185 185 186 186 185 185 183 183 182 178 175 175 178 182 187 192 204 227 253 270 280 285 294 301 302 304 310 319 330 352 3 16 342 335 335 340 339 339 345 348